• In Portugal
  • List of Countries
  • For 7 days
  • Water Temperature
  • Satellite Maps
  • Weather Map
  • Weather Widgets
  • user-avatar
    Login

    Hourly Weather Viedma

    Today, 27 May, Sunday

    Time Temperature Precipitation Wind Pressure Humidity
    00:00 +13°C° 0 mm 2 mps 756 mmHg 64%
    01:00 +12°C° 0 mm 3 mps 756 mmHg 64%
    02:00 +12°C° 0 mm 3 mps 756 mmHg 64%
    03:00 +12°C° 0 mm 3 mps 756 mmHg 63%
    04:00 +11°C° 0 mm 4 mps 757 mmHg 63%
    05:00 +11°C° 0 mm 4 mps 757 mmHg 62%
    06:00 +11°C° 0 mm 4 mps 757 mmHg 59%
    07:00 +11°C° 0 mm 4 mps 757 mmHg 56%
    08:00 +10°C° 0 mm 5 mps 757 mmHg 53%
    09:00 +13°C° 0 mm 5 mps 758 mmHg 46%
    10:00 +15°C° 0 mm 5 mps 758 mmHg 39%
    11:00 +16°C° 0 mm 6 mps 758 mmHg 32%
    12:00 +17°C° 0 mm 5 mps 757 mmHg 31%
    13:00 +19°C° 0 mm 4 mps 757 mmHg 30%
    14:00 +20°C° 0 mm 4 mps 756 mmHg 30%
    15:00 +19°C° 0 mm 4 mps 756 mmHg 33%
    16:00 +18°C° 0 mm 3 mps 756 mmHg 36%
    17:00 +17°C° 0 mm 3 mps 756 mmHg 39%
    18:00 +17°C° 0 mm 4 mps 755 mmHg 43%
    19:00 +15°C° 0 mm 4 mps 755 mmHg 47%
    20:00 +15°C° 0 mm 5 mps 755 mmHg 50%
    21:00 +15°C° 0 mm 6 mps 755 mmHg 54%
    22:00 +15°C° 0 mm 6 mps 755 mmHg 58%
    23:00 +15°C° 0 mm 7 mps 754 mmHg 62%

    Tomorrow, 28 May, Monday

    Time Temperature Precipitation Wind Pressure Humidity
    00:00 +15°C° 0 mm 7 mps 754 mmHg 65%
    01:00 +15°C° 0 mm 7 mps 753 mmHg 68%
    02:00 +15°C° 0 mm 7 mps 753 mmHg 71%
    03:00 +15°C° 0 mm 6 mps 753 mmHg 75%
    04:00 +15°C° 0 mm 5 mps 753 mmHg 79%
    05:00 +15°C° 0 mm 5 mps 753 mmHg 83%
    06:00 +15°C° 0 mm 5 mps 753 mmHg 84%
    07:00 +15°C° 0 mm 5 mps 753 mmHg 85%
    08:00 +14°C° 0 mm 5 mps 753 mmHg 85%
    09:00 +15°C° 0 mm 5 mps 753 mmHg 73%
    10:00 +16°C° 0 mm 6 mps 754 mmHg 61%
    11:00 +17°C° 0 mm 6 mps 754 mmHg 49%
    12:00 +19°C° 0 mm 6 mps 754 mmHg 44%
    13:00 +18°C° 0 mm 7 mps 753 mmHg 38%
    14:00 +18°C° 0 mm 7 mps 753 mmHg 33%
    15:00 +17°C° 0 mm 5 mps 753 mmHg 35%
    16:00 +17°C° 0 mm 4 mps 754 mmHg 37%
    17:00 +16°C° 0 mm 3 mps 754 mmHg 38%
    18:00 +16°C° 0 mm 3 mps 754 mmHg 39%
    19:00 +16°C° 0 mm 3 mps 755 mmHg 39%
    20:00 +14°C° 0 mm 3 mps 755 mmHg 40%
    21:00 +14°C° 0 mm 3 mps 755 mmHg 42%
    22:00 +14°C° 0 mm 4 mps 755 mmHg 44%
    23:00 +13°C° 0 mm 4 mps 755 mmHg 46%

    Day after tomorrow, 29 May, Tuesday

    Time Temperature Precipitation Wind Pressure Humidity
    00:00 +13°C° 0.8 mm 4 mps 755 mmHg 54%
    01:00 +12°C° 0.8 mm 4 mps 754 mmHg 63%
    02:00 +11°C° 0.8 mm 3 mps 754 mmHg 71%
    03:00 +11°C° 0.2 mm 3 mps 753 mmHg 72%
    04:00 +11°C° 0.2 mm 3 mps 753 mmHg 73%
    05:00 +11°C° 0.2 mm 3 mps 752 mmHg 74%
    06:00 +12°C° 0.1 mm 3 mps 752 mmHg 73%
    07:00 +12°C° 0.1 mm 3 mps 752 mmHg 72%
    08:00 +12°C° 0.1 mm 3 mps 752 mmHg 71%
    09:00 +13°C° 0.1 mm 4 mps 752 mmHg 72%
    10:00 +13°C° 0.1 mm 5 mps 752 mmHg 73%
    11:00 +14°C° 0.1 mm 5 mps 752 mmHg 74%
    12:00 +14°C° 0 mm 6 mps 751 mmHg 73%
    13:00 +14°C° 0 mm 7 mps 751 mmHg 72%
    14:00 +14°C° 0 mm 7 mps 751 mmHg 71%
    15:00 +14°C° 0 mm 7 mps 752 mmHg 69%
    16:00 +12°C° 0 mm 7 mps 753 mmHg 68%
    17:00 +12°C° 0 mm 7 mps 754 mmHg 66%
    18:00 +12°C° 0 mm 7 mps 755 mmHg 62%
    19:00 +11°C° 0 mm 7 mps 755 mmHg 59%
    20:00 +11°C° 0 mm 7 mps 756 mmHg 55%
    21:00 +11°C° 0 mm 7 mps 757 mmHg 53%
    22:00 +10°C° 0 mm 7 mps 757 mmHg 52%
    23:00 +10°C° 0 mm 7 mps 757 mmHg 50%

    30 May, Wednesday

    Time Temperature Precipitation Wind Pressure Humidity
    00:00 +9°C° 0 mm 6 mps 758 mmHg 51%
    01:00 +9°C° 0 mm 6 mps 758 mmHg 52%
    02:00 +9°C° 0 mm 5 mps 759 mmHg 53%
    03:00 +9°C° 0 mm 6 mps 759 mmHg 54%
    04:00 +9°C° 0 mm 6 mps 759 mmHg 55%
    05:00 +8°C° 0 mm 7 mps 759 mmHg 57%
    06:00 +8°C° 0 mm 7 mps 760 mmHg 57%
    07:00 +8°C° 0 mm 7 mps 760 mmHg 58%
    08:00 +8°C° 0 mm 7 mps 761 mmHg 59%
    09:00 +7°C° 0.1 mm 9 mps 762 mmHg 60%
    10:00 +7°C° 0.1 mm 10 mps 763 mmHg 61%
    11:00 +8°C° 0.1 mm 11 mps 763 mmHg 62%
    12:00 +7°C° 0.2 mm 11 mps 764 mmHg 60%
    13:00 +7°C° 0.2 mm 10 mps 764 mmHg 58%
    14:00 +7°C° 0.2 mm 9 mps 764 mmHg 56%
    15:00 +6°C° 0.1 mm 9 mps 765 mmHg 55%
    16:00 +6°C° 0.1 mm 8 mps 765 mmHg 55%
    17:00 +5°C° 0.1 mm 7 mps 766 mmHg 54%
    18:00 +5°C° 0 mm 7 mps 766 mmHg 54%
    19:00 +5°C° 0 mm 6 mps 767 mmHg 55%
    20:00 +5°C° 0 mm 5 mps 767 mmHg 55%
    21:00 +5°C° 0 mm 5 mps 768 mmHg 55%
    22:00 +6°C° 0 mm 5 mps 768 mmHg 54%
    23:00 +6°C° 0 mm 5 mps 768 mmHg 54%

    31 May, Thursday

    Time Temperature Precipitation Wind Pressure Humidity
    00:00 +6°C° 0 mm 5 mps 768 mmHg 54%
    01:00 +5°C° 0 mm 5 mps 768 mmHg 55%
    02:00 +5°C° 0 mm 4 mps 768 mmHg 55%
    03:00 +5°C° 0 mm 4 mps 769 mmHg 55%
    04:00 +5°C° 0 mm 4 mps 769 mmHg 55%
    05:00 +4°C° 0 mm 4 mps 769 mmHg 56%
    06:00 +4°C° 0 mm 4 mps 769 mmHg 56%
    07:00 +4°C° 0 mm 3 mps 770 mmHg 57%
    08:00 +4°C° 0 mm 3 mps 770 mmHg 57%
    09:00 +7°C° 0 mm 3 mps 770 mmHg 53%
    10:00 +7°C° 0 mm 4 mps 770 mmHg 48%
    11:00 +8°C° 0 mm 4 mps 771 mmHg 44%
    12:00 +10°C° 0 mm 4 mps 770 mmHg 43%
    13:00 +10°C° 0 mm 4 mps 770 mmHg 42%
    14:00 +11°C° 0 mm 3 mps 770 mmHg 41%
    15:00 +10°C° 0 mm 3 mps 770 mmHg 44%
    16:00 +9°C° 0 mm 3 mps 770 mmHg 47%
    17:00 +8°C° 0 mm 3 mps 770 mmHg 50%
    18:00 +8°C° 0 mm 2 mps 770 mmHg 53%
    19:00 +7°C° 0 mm 2 mps 770 mmHg 56%
    20:00 +6°C° 0 mm 2 mps 770 mmHg 58%
    21:00 +6°C° 0 mm 2 mps 770 mmHg 60%
    22:00 +7°C° 0 mm 1 mps 771 mmHg 61%
    23:00 +7°C° 0 mm 1 mps 771 mmHg 62%

    1 June, Friday

    Time Temperature Precipitation Wind Pressure Humidity
    00:00 +6°C° 0 mm 2 mps 771 mmHg 63%
    01:00 +5°C° 0 mm 2 mps 771 mmHg 63%
    02:00 +5°C° 0 mm 2 mps 770 mmHg 64%
    03:00 +5°C° 0 mm 2 mps 770 mmHg 64%
    04:00 +5°C° 0 mm 2 mps 770 mmHg 65%
    05:00 +5°C° 0 mm 2 mps 770 mmHg 65%
    06:00 +5°C° 0 mm 2 mps 770 mmHg 65%
    07:00 +5°C° 0 mm 2 mps 771 mmHg 65%
    08:00 +5°C° 0 mm 2 mps 771 mmHg 65%
    09:00 +6°C° 0 mm 2 mps 771 mmHg 60%
    10:00 +8°C° 0 mm 2 mps 771 mmHg 54%
    11:00 +10°C° 0 mm 2 mps 771 mmHg 48%
    12:00 +10°C° 0 mm 2 mps 771 mmHg 46%
    13:00 +10°C° 0 mm 2 mps 771 mmHg 44%
    14:00 +12°C° 0 mm 1 mps 770 mmHg 42%
    15:00 +11°C° 0 mm 1 mps 770 mmHg 46%
    16:00 +10°C° 0 mm 1 mps 770 mmHg 50%
    17:00 +9°C° 0 mm 1 mps 770 mmHg 54%
    18:00 +8°C° 0 mm 1 mps 771 mmHg 56%
    19:00 +8°C° 0 mm 1 mps 771 mmHg 57%
    20:00 +6°C° 0 mm 0 mps 771 mmHg 59%
    21:00 +7°C° 0 mm 1 mps 771 mmHg 60%
    22:00 +7°C° 0 mm 1 mps 771 mmHg 61%
    23:00 +6°C° 0 mm 1 mps 771 mmHg 62%
    Show more